SCP
0 0 0 0 0 0 0 0 0 0 0 0 0 0 0 0 0 0 0 0 0 0 0 0 0 0 0 0 0 0 0 0 0 0 0 0 0 0 0 0 0 0 0 0
0 0 0 0 0 0 0 0 0 0 0 0 0 0 0 0 0 0 0 0 0 0 0 0 0 0 0 0 0 0 0 0 0 0 0 0 0 0 0 0 0 0 0 0
0 0 0 0 0 0 0 0 0 0 0 0 0 0 0 0 0 0 0 0 0 0 0 0 0 0 0 0 0 0 0 0 0 0 0 0 0 0 0 0 0 0 0 0
0 0 0 0 0 0 0 0 0 0 0 0 0 0 0 0 0 0 0 0 0 0 0 0 0 0 0 0 0 0 0 0 0 0 0 0 0 0 0 0 0 0 0 -0
0 0 0 0 0 0 0 0 0 0 0 0 0 0 0 0 0 0 0 0 0 0 0 0 0 0 0 0 0 0 0 0 0 0 0 0 0 0 0 0 0 0 0 0
0 0 0 0 0 0 0 0 0 0 0 0 0 0 0 0 0 0 0 0 0 0 0 0 0 0 0 0 0 0 0 0 0 0 0 0 0 0 0 0 0 0 0 0
0 0 0 0 0 0 0 0 0 0 0 0 0 0 0 0 0 0 0 0 0 0 0 0 0 0 0 0 0 0 0 0 0 0 0 0 0 0 0 0 1 0 1 1
0 0 0 0 0 -0 0 0 0 0 0 0 0 0 0 0 0 0 0 0 0 0 0 0 0 0 0 0 0 0 0 0 0 0 0 0 0 0 0 1 0 0 0 0
0 0 0 0 0 0 0 0 0 0 0 0 0 0 0 0 0 0 0 0 0 0 0 0 0 0 0 0 0 0 0 0 0 0 0 0 0 0 0 0 0 0 0 0
0 0 0 0 0 0 0 0 0 0 0 0 0 0 0 0 0 0 0 0 0 0 0 0 0 0 0 0 0 0 0 0 0 0 0 0 0 0 0 0 0 0 0 0
0 0 0 0 0 0 0 0 0 0 0 0 0 0 0 0 0 0 0 0 0 0 0 0 0 0 0 0 0 0 0 0 0 0 0 0 0 0 0 0 0 0 0 0
0 0 0 0 0 0 0 0 0 0 0 0 0 0 -0 -0 -0 -0 0 0 0 0 0 0 0 0 0 0 0 0 0 0 0 0 0 0 0 0 0 0 0 0 0 0
0 0 0 0 0 0 0 0 0 0 0 0 0 0 0 0 0 0 0 0 0 0 0 0 0 0 0 0 0 0 0 0 0 0 0 0 0 0 0 0 0 0 0 0
0 0 0 0 0 0 0 0 0 0 0 0 0 0 0 0 0 0 0 -0 0 0 0 0 0 0 0 0 0 0 0 0 0 0 0 0 0 0 0 0 0 0 0 0
0 0 0 0 0 0 0 0 0 0 0 0 0 0 0 0 0 0 0 0 0 0 0 0 0 0 0 0 0 0 0 0 0 0 0 0 0 0 0 0 0 0 0 0
0 0 0 0 0 0 0 0 0 0 0 0 0 0 0 0 0 0 0 0 0 0 0 0 0 0 0 0 0 0 0 0 0 0 0 0 0 0 0 0 0 0 0 0
0 0 0 0 0 0 0 0 0 0 0 0 0 0 0 0 0 0 0 0 0 0 -0 0 0 -0 -0 0 0 0 0 0 0 0 0 0 0 0 0 0 0 0 0 0
0 0 0 0 0 0 0 0 0 0 0 0 0 0 0 0 0 0 0 0 0 0 0 0 0 -0 -0 -0 -0 -0 -0 0 0 0 0 0 0 0 0 0 0 0 0 0
0 0 0 0 0 0 0 0 0 0 0 0 0 0 0 0 0 -0 0 0 0 0 -0 -0 0 0 -0 0 -0 -0 -0 -0 -0 0 0 0 0 0 0 0 0 0 0 0
0 0 0 0 0 0 0 0 0 0 0 0 0 0 0 0 0 0 0 0 -0 -0 0 0 0 0 -0 -0 -0 -0 -0 -0 -0 0 -0 -0 0 0 0 0 0 0 0 0
0 0 0 0 0 0 0 0 0 0 0 0 0 0 0 0 0 0 0 0 0 0 0 -0 0 0 0 0 0 -0 -0 -0 -0 0 0 -0 0 0 0 0 0 0 0 0
0 0 0 0 0 0 0 0 0 0 0 0 0 0 0 0 0 0 0 0 0 0 0 0 0 0 -0 0 0 0 -0 -0 -0 -0 -0 0 0 0 0 0 0 0 0 0
0 0 0 0 0 0 0 0 0 0 0 0 0 0 0 0 0 0 0 0 0 0 0 0 0 0 -0 -0 -0 -0 0 -0 0 -0 -0 -0 -0 -0 0 0 0 0 0 0
0 0 0 0 0 0 0 0 0 0 0 0 0 0 0 0 0 0 0 0 0 0 0 0 0 0 0 0 -0 -0 -0 -0 -0 0 -0 0 -0 -0 -0 0 0 0 0 0
0 0 0 0 0 0 0 0 0 0 0 0 0 0 0 0 0 0 0 0 0 0 0 0 0 0 0 0 0 0 -0 -0 -0 -0 -0 -0 -0 0 0 0 0 0 0 0
0 0 0 0 0 0 0 0 0 0 0 0 0 0 0 0 0 0 0 0 0 0 0 0 0 0 0 0 0 0 0 -0 -0 -0 -0 -0 -0 -0 -0 -0 -0 -0 -0 0
0 0 0 0 0 0 0 0 0 0 0 0 0 0 0 0 0 0 0 0 0 0 0 0 0 0 0 0 0 0 0 0 -0 -0 -0 -0 -0 -0 -0 -0 -0 -0 -0 -0
Wind_Speed_500mb
57 56 53 47 41 32 25 7 7 7 2 16 4 7 1 4 8 7 8 9 7 5 0 5 7 14 16 13 5 13 7 22 21 41 22 25 41 42 41 27 37 26 29 25
55 52 47 39 32 28 27 14 6 9 3 9 5 3 7 5 7 4 6 8 8 2 2 3 8 13 10 17 6 4 3 22 27 29 24 18 28 32 41 40 33 38 32 31
49 45 38 28 22 20 14 6 4 5 3 2 13 9 5 8 3 3 5 1 9 9 8 2 12 17 10 8 16 11 9 5 22 21 35 21 36 31 34 37 32 36 38 28
45 41 32 25 20 18 12 8 7 7 6 8 13 10 6 12 7 1 3 11 14 12 10 9 9 6 13 8 7 2 7 7 9 2 4 5 18 32 39 37 40 38 31 40
41 38 27 23 21 17 15 10 9 4 10 8 8 3 6 10 9 10 8 12 5 9 9 7 10 7 5 3 3 2 4 6 6 11 4 7 14 27 26 29 31 32 36 32
37 31 24 19 21 21 11 11 8 4 8 10 8 7 7 13 24 4 16 13 12 13 16 14 15 8 5 6 4 1 3 5 11 18 11 12 22 28 26 30 30 30 33 24
34 27 26 26 25 22 12 8 6 6 4 6 5 4 6 9 10 15 20 20 19 14 14 6 7 6 3 6 6 7 6 9 7 12 10 24 22 10 7 13 31 27 23 23
32 29 27 26 28 25 18 13 8 4 5 4 7 12 17 13 16 8 17 16 23 18 10 15 11 13 10 15 5 11 9 11 11 16 23 11 18 16 14 2 16 19 16 20
28 26 21 22 21 20 16 12 11 5 1 6 6 11 12 7 9 5 7 19 23 14 8 10 13 11 5 13 16 8 13 12 15 15 23 30 24 14 14 2 16 29 27 27
27 20 18 17 18 17 16 10 11 8 5 4 1 3 9 5 4 3 7 4 12 9 11 11 10 7 5 8 13 19 18 18 23 16 17 11 14 17 15 20 8 33 30 28
26 20 15 14 18 17 18 15 15 7 6 6 2 0 3 2 8 8 6 6 7 9 8 6 6 7 6 6 8 4 12 14 15 20 18 19 29 9 7 10 18 30 31 28
23 21 17 11 15 16 18 12 17 9 2 6 3 6 8 4 8 14 10 8 8 3 7 2 5 7 4 8 8 10 12 8 13 9 9 10 17 20 7 11 17 25 34 34
22 22 20 18 17 15 15 10 23 8 3 5 2 5 4 4 8 6 11 8 5 4 3 11 6 4 8 8 7 9 7 6 12 9 14 6 5 6 12 19 21 26 29 40
21 22 21 21 19 19 14 7 19 13 4 9 12 6 7 8 4 4 6 8 8 4 4 5 4 6 4 6 11 13 14 6 10 19 19 16 8 5 21 23 21 29 29 32
19 20 22 23 26 29 15 5 12 18 4 8 10 6 12 12 2 5 11 7 5 6 3 5 5 6 8 13 11 15 15 16 16 15 13 12 19 20 31 31 27 30 34 31
15 19 22 24 26 29 4 2 9 21 8 3 4 6 11 14 6 8 10 8 3 5 7 7 3 2 8 8 11 9 12 17 26 30 28 28 36 37 34 24 31 30 31 25
20 19 19 20 18 12 5 5 7 19 8 2 2 8 5 5 3 6 8 7 3 6 7 6 9 4 6 7 17 13 19 27 34 37 36 41 34 31 19 28 29 28 26 17
21 23 23 20 11 6 9 16 14 12 3 1 3 0 1 9 5 4 2 3 4 6 6 4 10 9 5 7 13 36 42 46 50 52 48 51 44 41 40 31 27 26 24 13
25 27 20 6 4 5 13 17 6 5 4 2 2 3 2 2 4 3 2 2 3 3 10 7 13 4 2 21 49 61 64 42 44 41 41 39 43 42 37 32 27 24 22 18
18 15 7 5 8 25 8 3 2 3 0 1 3 9 5 7 2 3 1 3 5 4 2 2 3 4 23 40 46 49 60 60 51 55 53 54 53 45 40 34 26 23 17 9
8 5 5 15 20 7 2 3 3 1 4 10 4 3 5 9 5 4 1 4 5 3 5 2 3 5 22 24 30 45 68 61 13 41 46 38 38 34 34 32 21 19 13 18
14 12 14 10 4 5 6 4 3 5 1 6 4 4 4 10 9 7 11 4 5 5 11 6 1 8 28 20 35 22 51 71 74 61 35 17 10 19 25 23 18 21 21 27
11 3 4 6 7 5 5 6 3 5 12 12 10 7 9 9 12 7 9 10 2 3 6 2 5 18 26 26 19 27 20 40 53 54 59 58 55 42 40 36 24 30 29 28
5 7 6 9 7 9 7 1 5 8 5 8 9 5 8 4 9 1 6 3 6 4 3 4 10 17 23 23 25 32 34 25 24 41 46 43 48 61 57 48 45 50 50 40
8 8 8 13 15 11 14 7 6 8 10 11 7 7 8 6 4 5 2 5 4 2 3 2 13 8 15 21 23 25 28 28 29 21 28 36 29 43 40 40 28 45 47 40
8 12 11 17 13 15 5 12 14 14 16 9 6 4 5 7 3 7 5 2 5 6 5 8 10 3 3 10 16 21 24 28 27 25 21 15 24 25 23 33 39 25 32 27
9 13 23 28 24 19 14 8 8 21 16 5 4 6 2 3 6 3 6 6 6 12 11 10 5 2 2 1 6 12 15 21 26 26 19 18 10 15 19 25 17 17 22 18
Wind_Direction_500mb
335 334 334 335 337 346 354 340 251 340 184 251 273 250 2 356 253 223 265 274 277 295 96 141 146 133 47 12 278 191 195 216 201 204 193 232 219 211 207 222 222 238 266 249
336 336 337 345 350 357 5 340 332 340 324 279 184 130 234 267 264 251 252 225 284 282 138 183 118 124 61 28 41 11 122 216 218 200 176 194 227 223 230 230 246 232 228 236
346 347 353 1 5 9 24 322 249 105 58 348 309 323 270 243 167 230 264 266 225 203 198 47 158 138 84 49 37 354 259 211 251 231 221 213 204 221 222 237 228 233 239 248
357 2 7 19 28 26 59 2 61 9 356 64 331 293 315 280 222 302 249 195 242 203 192 190 145 155 150 105 45 323 319 197 259 68 67 234 263 212 217 229 238 242 242 240
6 10 20 41 40 32 40 352 335 66 2 325 310 346 20 317 6 311 127 268 148 215 245 293 184 195 225 21 101 325 324 152 269 212 194 219 230 219 238 245 240 246 252 259
9 14 23 44 40 53 61 29 5 317 8 6 331 22 347 6 341 128 26 323 265 188 69 17 7 1 27 44 316 114 286 248 231 218 178 226 235 222 224 230 232 245 243 254
16 32 35 32 35 57 61 47 8 327 45 38 17 324 282 309 316 318 348 2 306 32 313 256 220 208 225 243 214 270 206 230 232 251 193 224 92 51 49 257 54 20 347 3
33 35 34 42 44 51 54 53 59 75 92 9 62 6 12 357 316 225 292 22 0 327 253 223 190 190 195 205 211 225 244 252 212 236 223 167 149 46 21 316 106 56 6 343
38 43 41 40 39 43 56 55 66 66 48 62 7 356 32 357 352 258 234 292 334 338 259 240 224 193 153 171 164 227 215 249 262 190 249 225 73 14 342 270 188 23 3 348
34 37 38 33 26 42 54 50 72 44 33 61 4 27 3 18 41 338 318 36 316 307 225 229 231 184 328 209 200 171 190 217 225 216 236 126 14 340 312 222 42 342 341 343
28 24 27 28 31 39 58 36 42 55 5 65 160 93 357 24 26 40 343 129 352 291 243 229 197 273 140 262 51 251 204 211 205 240 235 228 6 57 344 7 337 331 333 334
17 18 19 26 33 33 39 18 7 19 39 12 234 232 248 279 343 357 73 90 114 325 277 342 274 208 191 337 220 176 244 309 344 328 56 55 74 92 52 2 342 334 331 334
13 23 31 33 29 36 35 17 16 15 342 153 159 66 329 331 263 256 318 80 83 100 331 333 336 306 315 257 234 325 190 291 270 324 129 44 334 102 31 0 345 341 343 340
19 26 29 26 24 10 6 11 12 16 311 295 95 51 29 1 57 174 183 78 79 78 265 269 331 309 6 306 335 291 352 331 281 271 275 311 232 38 347 345 340 342 346 352
18 15 16 15 9 1 354 14 15 25 43 341 94 107 31 22 145 129 173 173 11 0 261 248 38 331 284 249 280 261 242 277 270 276 41 326 306 317 322 322 330 332 332 350
358 360 358 354 357 357 28 301 342 8 17 261 195 103 41 30 86 125 155 186 262 298 312 349 331 334 308 293 293 336 291 279 278 283 291 285 283 292 299 296 318 323 329 340
341 340 338 333 336 359 20 3 322 1 49 323 160 124 19 18 242 167 167 187 212 309 321 284 308 324 274 266 263 305 280 276 276 274 277 275 272 270 270 291 303 315 314 333
323 336 328 321 308 315 10 336 344 7 18 31 134 125 79 8 330 179 275 249 242 213 273 242 314 303 285 262 293 315 301 291 279 268 263 263 267 267 269 277 289 302 302 338
316 328 328 326 7 343 317 328 4 26 114 299 329 71 55 56 356 10 14 348 295 294 22 21 342 1 302 310 311 301 295 274 269 268 264 262 254 255 253 264 268 278 291 315
321 329 350 314 289 328 329 31 19 356 100 108 280 111 109 166 177 190 190 26 12 29 13 283 10 300 266 299 324 356 348 312 280 253 250 247 250 245 245 251 249 263 281 275
332 301 273 281 317 349 331 295 275 265 248 190 232 280 102 179 168 133 145 169 180 196 124 282 352 284 341 350 346 12 3 24 285 247 234 238 236 236 240 239 247 258 232 171
284 272 281 292 272 256 256 222 185 217 238 199 253 131 184 161 178 156 187 265 190 216 153 232 328 320 350 350 356 19 26 28 35 51 65 91 194 236 226 240 236 180 172 168
320 269 249 219 202 284 254 307 108 308 180 198 195 177 184 170 218 205 193 230 98 166 217 4 32 15 359 2 3 17 29 49 40 43 50 51 71 91 99 83 81 139 122 124
220 229 252 229 186 234 215 156 335 310 246 186 196 158 227 180 206 271 247 81 258 265 269 53 60 39 20 20 21 22 26 33 60 54 53 53 55 65 69 73 73 77 89 90
228 219 242 221 250 264 265 255 213 201 175 168 173 192 236 166 204 222 232 219 261 205 262 107 93 54 32 31 28 24 23 21 26 57 69 72 68 64 71 72 69 69 70 78
221 230 253 241 266 282 216 258 238 189 168 179 218 193 231 215 235 209 233 235 223 209 173 132 140 122 66 39 33 30 31 27 25 24 31 96 85 78 77 67 81 80 74 69
228 242 244 258 285 284 313 298 213 178 170 252 182 223 163 103 229 229 177 213 162 138 146 141 146 206 210 35 26 30 28 25 21 22 25 28 92 98 92 98 102 83 82 72
Wind_Speed_850mb
57 56 53 47 41 32 25 7 7 7 2 16 4 7 1 4 8 7 8 9 7 5 0 5 7 14 16 13 5 13 7 22 21 41 22 25 41 42 41 27 37 26 29 25
55 52 47 39 32 28 27 14 6 9 3 9 5 3 7 5 7 4 6 8 8 2 2 3 8 13 10 17 6 4 3 22 27 29 24 18 28 32 41 40 33 38 32 31
49 45 38 28 22 20 14 6 4 5 3 2 13 9 5 8 3 3 5 1 9 9 8 2 12 17 10 8 16 11 9 5 22 21 35 21 36 31 34 37 32 36 38 28
45 41 32 25 20 18 12 8 7 7 6 8 13 10 6 12 7 1 3 11 14 12 10 9 9 6 13 8 7 2 7 7 9 2 4 5 18 32 39 37 40 38 31 40
41 38 27 23 21 17 15 10 9 4 10 8 8 3 6 10 9 10 8 12 5 9 9 7 10 7 5 3 3 2 4 6 6 11 4 7 14 27 26 29 31 32 36 32
37 31 24 19 21 21 11 11 8 4 8 10 8 7 7 13 24 4 16 13 12 13 16 14 15 8 5 6 4 1 3 5 11 18 11 12 22 28 26 30 30 30 33 24
34 27 26 26 25 22 12 8 6 6 4 6 5 4 6 9 10 15 20 20 19 14 14 6 7 6 3 6 6 7 6 9 7 12 10 24 22 10 7 13 31 27 23 23
32 29 27 26 28 25 18 13 8 4 5 4 7 12 17 13 16 8 17 16 23 18 10 15 11 13 10 15 5 11 9 11 11 16 23 11 18 16 14 2 16 19 16 20
28 26 21 22 21 20 16 12 11 5 1 6 6 11 12 7 9 5 7 19 23 14 8 10 13 11 5 13 16 8 13 12 15 15 23 30 24 14 14 2 16 29 27 27
27 20 18 17 18 17 16 10 11 8 5 4 1 3 9 5 4 3 7 4 12 9 11 11 10 7 5 8 13 19 18 18 23 16 17 11 14 17 15 20 8 33 30 28
26 20 15 14 18 17 18 15 15 7 6 6 2 0 3 2 8 8 6 6 7 9 8 6 6 7 6 6 8 4 12 14 15 20 18 19 29 9 7 10 18 30 31 28
23 21 17 11 15 16 18 12 17 9 2 6 3 6 8 4 8 14 10 8 8 3 7 2 5 7 4 8 8 10 12 8 13 9 9 10 17 20 7 11 17 25 34 34
22 22 20 18 17 15 15 10 23 8 3 5 2 5 4 4 8 6 11 8 5 4 3 11 6 4 8 8 7 9 7 6 12 9 14 6 5 6 12 19 21 26 29 40
21 22 21 21 19 19 14 7 19 13 4 9 12 6 7 8 4 4 6 8 8 4 4 5 4 6 4 6 11 13 14 6 10 19 19 16 8 5 21 23 21 29 29 32
19 20 22 23 26 29 15 5 12 18 4 8 10 6 12 12 2 5 11 7 5 6 3 5 5 6 8 13 11 15 15 16 16 15 13 12 19 20 31 31 27 30 34 31
15 19 22 24 26 29 4 2 9 21 8 3 4 6 11 14 6 8 10 8 3 5 7 7 3 2 8 8 11 9 12 17 26 30 28 28 36 37 34 24 31 30 31 25
20 19 19 20 18 12 5 5 7 19 8 2 2 8 5 5 3 6 8 7 3 6 7 6 9 4 6 7 17 13 19 27 34 37 36 41 34 31 19 28 29 28 26 17
21 23 23 20 11 6 9 16 14 12 3 1 3 0 1 9 5 4 2 3 4 6 6 4 10 9 5 7 13 36 42 46 50 52 48 51 44 41 40 31 27 26 24 13
25 27 20 6 4 5 13 17 6 5 4 2 2 3 2 2 4 3 2 2 3 3 10 7 13 4 2 21 49 61 64 42 44 41 41 39 43 42 37 32 27 24 22 18
18 15 7 5 8 25 8 3 2 3 0 1 3 9 5 7 2 3 1 3 5 4 2 2 3 4 23 40 46 49 60 60 51 55 53 54 53 45 40 34 26 23 17 9
8 5 5 15 20 7 2 3 3 1 4 10 4 3 5 9 5 4 1 4 5 3 5 2 3 5 22 24 30 45 68 61 13 41 46 38 38 34 34 32 21 19 13 18
14 12 14 10 4 5 6 4 3 5 1 6 4 4 4 10 9 7 11 4 5 5 11 6 1 8 28 20 35 22 51 71 74 61 35 17 10 19 25 23 18 21 21 27
11 3 4 6 7 5 5 6 3 5 12 12 10 7 9 9 12 7 9 10 2 3 6 2 5 18 26 26 19 27 20 40 53 54 59 58 55 42 40 36 24 30 29 28
5 7 6 9 7 9 7 1 5 8 5 8 9 5 8 4 9 1 6 3 6 4 3 4 10 17 23 23 25 32 34 25 24 41 46 43 48 61 57 48 45 50 50 40
8 8 8 13 15 11 14 7 6 8 10 11 7 7 8 6 4 5 2 5 4 2 3 2 13 8 15 21 23 25 28 28 29 21 28 36 29 43 40 40 28 45 47 40
8 12 11 17 13 15 5 12 14 14 16 9 6 4 5 7 3 7 5 2 5 6 5 8 10 3 3 10 16 21 24 28 27 25 21 15 24 25 23 33 39 25 32 27
9 13 23 28 24 19 14 8 8 21 16 5 4 6 2 3 6 3 6 6 6 12 11 10 5 2 2 1 6 12 15 21 26 26 19 18 10 15 19 25 17 17 22 18
Wind_Direction_850mb
335 334 334 335 337 346 354 340 251 340 184 251 273 250 2 356 253 223 265 274 277 295 96 141 146 133 47 12 278 191 195 216 201 204 193 232 219 211 207 222 222 238 266 249
336 336 337 345 350 357 5 340 332 340 324 279 184 130 234 267 264 251 252 225 284 282 138 183 118 124 61 28 41 11 122 216 218 200 176 194 227 223 230 230 246 232 228 236
346 347 353 1 5 9 24 322 249 105 58 348 309 323 270 243 167 230 264 266 225 203 198 47 158 138 84 49 37 354 259 211 251 231 221 213 204 221 222 237 228 233 239 248
357 2 7 19 28 26 59 2 61 9 356 64 331 293 315 280 222 302 249 195 242 203 192 190 145 155 150 105 45 323 319 197 259 68 67 234 263 212 217 229 238 242 242 240
6 10 20 41 40 32 40 352 335 66 2 325 310 346 20 317 6 311 127 268 148 215 245 293 184 195 225 21 101 325 324 152 269 212 194 219 230 219 238 245 240 246 252 259
9 14 23 44 40 53 61 29 5 317 8 6 331 22 347 6 341 128 26 323 265 188 69 17 7 1 27 44 316 114 286 248 231 218 178 226 235 222 224 230 232 245 243 254
16 32 35 32 35 57 61 47 8 327 45 38 17 324 282 309 316 318 348 2 306 32 313 256 220 208 225 243 214 270 206 230 232 251 193 224 92 51 49 257 54 20 347 3
33 35 34 42 44 51 54 53 59 75 92 9 62 6 12 357 316 225 292 22 0 327 253 223 190 190 195 205 211 225 244 252 212 236 223 167 149 46 21 316 106 56 6 343
38 43 41 40 39 43 56 55 66 66 48 62 7 356 32 357 352 258 234 292 334 338 259 240 224 193 153 171 164 227 215 249 262 190 249 225 73 14 342 270 188 23 3 348
34 37 38 33 26 42 54 50 72 44 33 61 4 27 3 18 41 338 318 36 316 307 225 229 231 184 328 209 200 171 190 217 225 216 236 126 14 340 312 222 42 342 341 343
28 24 27 28 31 39 58 36 42 55 5 65 160 93 357 24 26 40 343 129 352 291 243 229 197 273 140 262 51 251 204 211 205 240 235 228 6 57 344 7 337 331 333 334
17 18 19 26 33 33 39 18 7 19 39 12 234 232 248 279 343 357 73 90 114 325 277 342 274 208 191 337 220 176 244 309 344 328 56 55 74 92 52 2 342 334 331 334
13 23 31 33 29 36 35 17 16 15 342 153 159 66 329 331 263 256 318 80 83 100 331 333 336 306 315 257 234 325 190 291 270 324 129 44 334 102 31 0 345 341 343 340
19 26 29 26 24 10 6 11 12 16 311 295 95 51 29 1 57 174 183 78 79 78 265 269 331 309 6 306 335 291 352 331 281 271 275 311 232 38 347 345 340 342 346 352
18 15 16 15 9 1 354 14 15 25 43 341 94 107 31 22 145 129 173 173 11 0 261 248 38 331 284 249 280 261 242 277 270 276 41 326 306 317 322 322 330 332 332 350
358 360 358 354 357 357 28 301 342 8 17 261 195 103 41 30 86 125 155 186 262 298 312 349 331 334 308 293 293 336 291 279 278 283 291 285 283 292 299 296 318 323 329 340
341 340 338 333 336 359 20 3 322 1 49 323 160 124 19 18 242 167 167 187 212 309 321 284 308 324 274 266 263 305 280 276 276 274 277 275 272 270 270 291 303 315 314 333
323 336 328 321 308 315 10 336 344 7 18 31 134 125 79 8 330 179 275 249 242 213 273 242 314 303 285 262 293 315 301 291 279 268 263 263 267 267 269 277 289 302 302 338
316 328 328 326 7 343 317 328 4 26 114 299 329 71 55 56 356 10 14 348 295 294 22 21 342 1 302 310 311 301 295 274 269 268 264 262 254 255 253 264 268 278 291 315
321 329 350 314 289 328 329 31 19 356 100 108 280 111 109 166 177 190 190 26 12 29 13 283 10 300 266 299 324 356 348 312 280 253 250 247 250 245 245 251 249 263 281 275
332 301 273 281 317 349 331 295 275 265 248 190 232 280 102 179 168 133 145 169 180 196 124 282 352 284 341 350 346 12 3 24 285 247 234 238 236 236 240 239 247 258 232 171
284 272 281 292 272 256 256 222 185 217 238 199 253 131 184 161 178 156 187 265 190 216 153 232 328 320 350 350 356 19 26 28 35 51 65 91 194 236 226 240 236 180 172 168
320 269 249 219 202 284 254 307 108 308 180 198 195 177 184 170 218 205 193 230 98 166 217 4 32 15 359 2 3 17 29 49 40 43 50 51 71 91 99 83 81 139 122 124
220 229 252 229 186 234 215 156 335 310 246 186 196 158 227 180 206 271 247 81 258 265 269 53 60 39 20 20 21 22 26 33 60 54 53 53 55 65 69 73 73 77 89 90
228 219 242 221 250 264 265 255 213 201 175 168 173 192 236 166 204 222 232 219 261 205 262 107 93 54 32 31 28 24 23 21 26 57 69 72 68 64 71 72 69 69 70 78
221 230 253 241 266 282 216 258 238 189 168 179 218 193 231 215 235 209 233 235 223 209 173 132 140 122 66 39 33 30 31 27 25 24 31 96 85 78 77 67 81 80 74 69
228 242 244 258 285 284 313 298 213 178 170 252 182 223 163 103 229 229 177 213 162 138 146 141 146 206 210 35 26 30 28 25 21 22 25 28 92 98 92 98 102 83 82 72